Terminal Aerodrome Forecast
Issued by NWS Grand Junction, CO

Home | Current Version | Previous Version | Text Only | Print | Product List | Glossary On
Versions: 1 2 3 4 5 6 7 8 9 10 11 12 13 14 15 16 17 18 19 20 21 22 23 24 25 26 27 28 29 30 31 32 33 34 35 36 37 38 39 40 41 42 43
000
FTUS45 KGJT 261737
TAFGJT
TAF
KGJT 261737Z 2618/2718 17005KT P6SM SCT150
     FM261900 29008G15KT P6SM VCTS SCT100CB BKN150
     FM270200 04005KT P6SM VCSH SCT110 BKN150
     FM270500 10007KT P6SM FEW110 SCT150
     FM271400 13007KT P6SM SCT150=

USA.gov is the U.S. government's official web portal to all federal, state and local government web resources and services.